| time (UTC) | temp F | wind direction | speed MPH | gust MPH | rain 1hr in | rain 24hr in | rain mn in | humidity % | barometer mb |
| 20260507113031 | 50 | 0 | 2.0 | 3.0 | 0.00 | 0.04 | 0.04 | 99 | 1014.6 |
| 20260507112047 | 50 | 0 | 1.0 | 3.0 | 0.01 | 0.04 | 0.04 | 99 | 1014.5 |
| 20260507111002 | 50 | 0 | 1.0 | 2.0 | 0.01 | 0.04 | 0.04 | 100 | 1014.5 |
| 20260507105919 | 51 | 0.0 | 2.0 | 0.01 | 0.04 | 0.04 | 1014.4 | ||
| 20260507104943 | 50 | 0.0 | 2.0 | 0.01 | 0.04 | 0.04 | 1014.4 | ||
| 20260507103830 | 50 | 0 | 1.0 | 2.0 | 0.01 | 0.04 | 0.04 | 99 | 1014.3 |
| 20260507103002 | 50 | 0.0 | 1.0 | 0.01 | 0.04 | 0.04 | 99 | 1014.2 | |
| 20260507101830 | 50 | 0.0 | 1.0 | 0.00 | 0.02 | 0.02 | 98 | 1014.1 | |
| 20260507100806 | 51 | 0 | 2.0 | 2.0 | 0.00 | 0.02 | 0.02 | 94 | 1014.0 |
| 20260507095206 | 51 | 0 | 1.0 | 2.0 | 0.00 | 0.02 | 0.02 | 93 | 1013.8 |
| 20260507094142 | 51 | 0.0 | 2.0 | 0.00 | 0.02 | 0.02 | 95 | 1013.6 | |
| 20260507093118 | 51 | 0 | 2.0 | 3.0 | 0.00 | 0.02 | 0.02 | 94 | 1013.6 |
| 20260507092143 | 51 | 0.0 | 2.0 | 0.00 | 0.02 | 0.02 | 96 | 1013.3 | |
| 20260507091119 | 50 | 0.0 | 1.0 | 0.00 | 0.02 | 0.02 | 97 | 1013.3 | |
| 20260507090202 | 50 | 0 | 1.0 | 3.0 | 0.00 | 0.02 | 0.02 | 98 | 1013.2 |
| 20260507085051 | 50 | 0 | 0.0 | 4.0 | 0.00 | 0.02 | 0.02 | 99 | 1013.0 |
| 20260507083919 | 50 | 0.0 | 2.0 | 0.00 | 0.02 | 0.02 | 99 | 1013.0 | |
| 20260507083030 | 50 | 0.0 | 2.0 | 0.00 | 0.02 | 0.02 | 1012.9 | ||
| 20260507081918 | 49 | 0 | 1.0 | 2.0 | 0.00 | 0.02 | 0.02 | 1012.9 | |
| 20260507081119 | 49 | 0 | 1.0 | 2.0 | 0.02 | 0.02 | 0.02 | 1012.8 | |
| 20260507075226 | 49 | 0.0 | 1.0 | 0.02 | 0.02 | 0.02 | 1012.6 | ||
| 20260507074231 | 49 | 0.0 | 1.0 | 0.02 | 0.02 | 0.02 | 1012.4 | ||
| 20260507073255 | 49 | 0.0 | 2.0 | 0.02 | 0.02 | 0.02 | 1012.3 | ||
| 20260507072319 | 49 | 0.0 | 1.0 | 0.02 | 0.02 | 0.02 | 1012.2 | ||
| 20260507071227 | 49 | 0.0 | 1.0 | 0.01 | 0.01 | 0.01 | 1012.2 | ||
| 20260507070311 | 49 | 0.0 | 1.0 | 0.00 | 0.00 | 0.00 | 1012.1 | ||
| 20260507065226 | 49 | 0.0 | 1.0 | 0.00 | 0.00 | 0.00 | 100 | 1012.0 | |
| 20260507064143 | 49 | 0.0 | 2.0 | 0.00 | 0.00 | 0.00 | 1011.9 | ||
| 20260507063119 | 49 | 0.0 | 0.0 | 0.00 | 0.00 | 0.00 | 100 | 1011.8 | |
| 20260507062026 | 48 | 0.0 | 2.0 | 0.00 | 0.00 | 0.00 | 99 | 1011.8 | |
| 20260507061050 | 49 | 0.0 | 0.0 | 0.00 | 0.00 | 0.00 | 98 | 1011.6 | |
| 20260507055030 | 48 | 0.0 | 0.0 | 0.00 | 0.00 | 0.00 | 99 | 1011.4 | |
| 20260507054006 | 48 | 0.0 | 1.0 | 0.00 | 0.00 | 0.00 | 99 | 1011.3 | |
| 20260507053031 | 49 | 0.0 | 0.0 | 0.00 | 0.00 | 0.00 | 97 | 1011.3 | |
| 20260507052055 | 48 | 0 | 2.0 | 2.0 | 0.00 | 0.00 | 0.00 | 97 | 1011.1 |
| 20260507051050 | 49 | 0.0 | 0.0 | 0.00 | 0.00 | 0.00 | 95 | 1011.0 | |
| 20260507050054 | 49 | 0.0 | 0.0 | 0.00 | 0.00 | 0.00 | 96 | 1010.7 | |
| 20260507044046 | 48 | 0 | 1.0 | 2.0 | 0.00 | 0.00 | 0.00 | 97 | 1010.5 |
| 20260507043030 | 49 | 0.0 | 0.0 | 0.00 | 0.00 | 0.00 | 97 | 1010.4 | |
| 20260507042106 | 48 | 0.0 | 1.0 | 0.00 | 0.00 | 0.00 | 97 | 1010.4 | |
| 20260507041031 | 48 | 0.0 | 1.0 | 0.00 | 0.01 | 0.00 | 96 | 1010.3 | |
| 20260507035314 | 49 | 0.0 | 1.0 | 0.00 | 0.01 | 0.00 | 97 | 1010.3 | |
| 20260507034222 | 49 | 0.0 | 2.0 | 0.00 | 0.01 | 0.00 | 96 | 1010.2 | |
| 20260507033158 | 49 | 0.0 | 1.0 | 0.00 | 0.01 | 0.00 | 96 | 1010.2 | |
| 20260507032142 | 49 | 0.0 | 0.0 | 0.00 | 0.02 | 0.00 | 96 | 1010.0 | |
| 20260507031119 | 49 | 0.0 | 1.0 | 0.00 | 0.02 | 0.00 | 96 | 1010.1 | |
| 20260507030142 | 48 | 0.0 | 1.0 | 0.00 | 0.02 | 0.00 | 96 | 1010.0 | |
| 20260507025118 | 48 | 0.0 | 2.0 | 0.00 | 0.02 | 0.00 | 97 | 1010.0 | |
| 20260507024231 | 49 | 0.0 | 1.0 | 0.00 | 0.04 | 0.00 | 97 | 1010.0 | |
| 20260507022142 | 49 | 0.0 | 1.0 | 0.00 | 0.05 | 0.00 | 98 | 1010.0 | |
| 20260507021119 | 48 | 0.0 | 2.0 | 0.00 | 0.07 | 0.00 | 99 | 1010.0 | |
| 20260507015342 | 49 | 0.0 | 2.0 | 0.00 | 0.09 | 0.00 | 99 | 1009.9 | |
| 20260507013519 | 49 | 0 | 1.0 | 2.0 | 0.00 | 0.11 | 0.00 | 99 | 1009.7 |
| 20260507012202 | 49 | 0.0 | 1.0 | 0.00 | 0.12 | 0.00 | 100 | 1009.6 | |
| 20260507011138 | 49 | 0.0 | 1.0 | 0.00 | 0.12 | 0.00 | 99 | 1009.6 | |
| 20260507010142 | 49 | 0.0 | 0.0 | 0.00 | 0.12 | 0.00 | 97 | 1009.6 | |
| 20260507005031 | 49 | 0.0 | 1.0 | 0.00 | 0.12 | 0.00 | 98 | 1009.6 | |
| 20260507004026 | 49 | 0.0 | 0.0 | 0.00 | 0.12 | 0.00 | 97 | 1009.4 | |
| 20260507003023 | 49 | 0 | 1.0 | 5.0 | 0.00 | 0.12 | 0.00 | 97 | 1009.5 |
| 20260507001919 | 50 | 0.0 | 2.0 | 0.00 | 0.12 | 0.00 | 97 | 1009.5 | |
| 20260507000846 | 50 | 0.0 | 0.0 | 0.00 | 0.12 | 0.00 | 96 | 1009.4 | |
| 20260506235403 | 50 | 0.0 | 2.0 | 0.00 | 0.12 | 0.00 | 95 | 1009.3 | |
| 20260506234406 | 50 | 0.0 | 0.0 | 0.00 | 0.12 | 0.00 | 95 | 1009.1 | |
| 20260506233246 | 50 | 0.0 | 1.0 | 0.00 | 0.12 | 0.00 | 94 | 1009.3 | |
| 20260506232319 | 51 | 0.0 | 0.0 | 0.00 | 0.12 | 0.00 | 94 | 1009.1 | |
| 20260506231207 | 51 | 0.0 | 1.0 | 0.00 | 0.12 | 0.00 | 93 | 1009.0 | |
| 20260506230055 | 51 | 0.0 | 1.0 | 0.00 | 0.12 | 0.00 | 93 | 1008.9 | |
| 20260506223958 | 51 | 0.0 | 0.0 | 0.00 | 0.12 | 0.00 | 92 | 1008.8 | |
| 20260506222854 | 51 | 0.0 | 0.0 | 0.00 | 0.12 | 0.00 | 92 | 1008.7 | |
| 20260506221919 | 51 | 0.0 | 0.0 | 0.00 | 0.13 | 0.00 | 92 | 1008.7 | |
| 20260506221119 | 51 | 0.0 | 2.0 | 0.00 | 0.13 | 0.00 | 92 | 1008.8 | |
| 20260506215207 | 51 | 0 | 1.0 | 2.0 | 0.00 | 0.13 | 0.13 | 92 | 1008.6 |
| 20260506214143 | 51 | 0.0 | 1.0 | 0.00 | 0.14 | 0.13 | 91 | 1008.6 | |
| 20260506213139 | 51 | 0.0 | 0.0 | 0.00 | 0.14 | 0.13 | 91 | 1008.5 | |
| 20260506212232 | 51 | 0.0 | 1.0 | 0.00 | 0.15 | 0.13 | 91 | 1008.6 | |
| 20260506211139 | 51 | 0.0 | 2.0 | 0.00 | 0.15 | 0.13 | 90 | 1008.4 | |
| 20260506210142 | 52 | 0.0 | 0.0 | 0.00 | 0.18 | 0.13 | 90 | 1008.5 | |
| 20260506203920 | 52 | 0.0 | 0.0 | 0.00 | 0.19 | 0.13 | 91 | 1008.4 | |
| 20260506202943 | 52 | 0 | 1.0 | 2.0 | 0.00 | 0.20 | 0.13 | 92 | 1008.4 |
| 20260506201852 | 52 | 0.0 | 0.0 | 0.00 | 0.21 | 0.13 | 93 | 1008.3 | |
| 20260506200915 | 52 | 0 | 1.0 | 2.0 | 0.00 | 0.24 | 0.13 | 94 | 1008.2 |
| 20260506195031 | 52 | 0.0 | 2.0 | 0.00 | 0.25 | 0.13 | 94 | 1008.1 | |
| 20260506194006 | 52 | 0.0 | 2.0 | 0.00 | 0.26 | 0.13 | 94 | 1008.0 | |
| 20260506193120 | 52 | 0.0 | 1.0 | 0.00 | 0.28 | 0.13 | 93 | 1007.9 | |
| 20260506192008 | 53 | 0.0 | 1.0 | 0.00 | 0.30 | 0.13 | 92 | 1007.8 | |
| 20260506191051 | 53 | 0.0 | 1.0 | 0.00 | 0.32 | 0.13 | 92 | 1007.5 | |
| 20260506185003 | 54 | 0 | 0.0 | 2.0 | 0.00 | 0.41 | 0.13 | 92 | 1007.0 |
| 20260506183919 | 54 | 0.0 | 1.0 | 0.00 | 0.47 | 0.13 | 92 | 1006.8 | |
| 20260506183051 | 54 | 0 | 1.0 | 2.0 | 0.00 | 0.54 | 0.13 | 92 | 1006.7 |
| 20260506181938 | 55 | 0.0 | 2.0 | 0.00 | 0.59 | 0.13 | 92 | 1006.7 | |
| 20260506181003 | 55 | 0 | 0.0 | 2.0 | 0.00 | 0.60 | 0.13 | 91 | 1006.5 |
| 20260506175159 | 56 | 0 | 1.0 | 2.0 | 0.00 | 0.61 | 0.13 | 86 | 1006.5 |
| 20260506174203 | 56 | 0 | 0.0 | 2.0 | 0.00 | 0.63 | 0.13 | 86 | 1006.3 |
| 20260506173138 | 56 | 0 | 1.0 | 2.0 | 0.00 | 0.63 | 0.13 | 87 | 1006.2 |
| 20260506170223 | 57 | 0.0 | 1.0 | 0.00 | 0.63 | 0.13 | 84 | 1005.8 | |
| 20260506165118 | 58 | 0 | 2.0 | 4.0 | 0.00 | 0.63 | 0.13 | 83 | 1005.7 |
| 20260506162942 | 60 | 0 | 1.0 | 2.0 | 0.00 | 0.63 | 0.13 | 77 | 1005.4 |
| 20260506162055 | 62 | 0 | 1.0 | 4.0 | 0.00 | 0.63 | 0.13 | 73 | 1005.3 |
| 20260506160846 | 63 | 0.0 | 1.0 | 0.00 | 0.63 | 0.13 | 66 | 1005.1 | |
| 20260506154407 | 63 | 0.0 | 2.0 | 0.00 | 0.63 | 0.13 | 66 | 1005.2 | |
| 20260506150944 | 64 | 0 | 2.0 | 3.0 | 0.00 | 0.63 | 0.13 | 62 | 1005.1 |
| 20260506145938 | 64 | 0 | 2.0 | 2.0 | 0.00 | 0.63 | 0.13 | 60 | 1005.2 |
| 20260506144943 | 65 | 0 | 2.0 | 4.0 | 0.00 | 0.63 | 0.13 | 59 | 1005.3 |
| 20260506143918 | 65 | 0 | 2.0 | 2.0 | 0.00 | 0.63 | 0.13 | 62 | 1005.2 |
| 20260506142806 | 63 | 0 | 2.0 | 3.0 | 0.00 | 0.63 | 0.13 | 61 | 1005.3 |
| 20260506141830 | 63 | 0 | 2.0 | 3.0 | 0.00 | 0.63 | 0.13 | 62 | 1005.3 |
| 20260506140807 | 63 | 0.0 | 2.0 | 0.00 | 0.63 | 0.13 | 64 | 1005.3 | |
| 20260506135119 | 63 | 0.0 | 1.0 | 0.00 | 0.63 | 0.13 | 64 | 1005.3 | |
| 20260506134143 | 64 | 0 | 2.0 | 4.0 | 0.00 | 0.63 | 0.13 | 62 | 1005.4 |
| 20260506133111 | 63 | 0 | 2.0 | 4.0 | 0.00 | 0.63 | 0.13 | 61 | 1005.5 |
| 20260506132018 | 63 | 0 | 2.0 | 3.0 | 0.00 | 0.63 | 0.13 | 63 | 1005.4 |
| 20260506131022 | 63 | 0 | 1.0 | 3.0 | 0.00 | 0.63 | 0.13 | 63 | 1005.5 |
| 20260506125918 | 63 | 0 | 1.0 | 2.0 | 0.00 | 0.63 | 0.13 | 64 | 1005.6 |
| 20260506125030 | 62 | 0 | 2.0 | 4.0 | 0.00 | 0.63 | 0.13 | 63 | 1005.5 |
| 20260506123919 | 62 | 0 | 1.0 | 2.0 | 0.00 | 0.63 | 0.13 | 62 | 1005.4 |
| 20260506123002 | 64 | 0 | 2.0 | 2.0 | 0.00 | 0.63 | 0.13 | 60 | 1005.4 |
| 20260506122049 | 64 | 0 | 2.0 | 3.0 | 0.00 | 0.63 | 0.13 | 60 | 1005.4 |
| 20260506120943 | 62 | 0 | 2.0 | 5.0 | 0.00 | 0.63 | 0.13 | 64 | 1005.5 |
| 20260506115219 | 62 | 0 | 2.0 | 3.0 | 0.00 | 0.63 | 0.13 | 66 | 1005.4 |
| 20260506114144 | 63 | 0 | 1.0 | 3.0 | 0.00 | 0.63 | 0.13 | 64 | 1005.4 |
| 20260506113120 | 62 | 0 | 2.0 | 3.0 | 0.00 | 0.63 | 0.13 | 72 | 1005.5 |